Allentown, PA

5:08 AM EDT on August 23, 2017 (GMT -0400)
Lehigh Valley International

Weather History for KABE - January, 2013

Change the Weather History Date:

Tuesday, January 22, 2013

  Actual Average Record
Temperature  
Mean Temperature 17 °F 28 °F  
Max Temperature 23 °F 36 °F 63 °F (1959)
Min Temperature 11 °F 19 °F -12 °F (1961)
Degree Days  
Heating Degree Days 48 37  
Month to date heating degree days 677 822  
Since 1 July heating degree days 2661 3017  
Cooling Degree Days 0 0  
Month to date cooling degree days 0 0  
Year to date cooling degree days 0 0  
Moisture  
Dew Point -2 °F    
Average Humidity 44    
Maximum Humidity 54    
Minimum Humidity 33    
Precipitation  
Precipitation 0.00 in 0.10 in 1.06 in (1987)
Month to date precipitation 1.25 2.14  
Year to date precipitation 1.25 2.14  
Snow  
Snow 0.00 in 0.40 in 11.10 in (1987)
Month to date snowfall 0.5 6.9  
Since 1 July snowfall 8.1 12.8  
Snow Depth 0.00 in    
Sea Level Pressure  
Sea Level Pressure 30.09 in    
Wind  
Wind Speed 15 mph (West)    
Max Wind Speed 24 mph    
Max Gust Speed 36 mph    
Visibility 10 miles    
Events      
T = Trace of Precipitation, MM = Missing Value Source: NWS Daily Summary

Daily Weather History Graph

Daily Weather History Graph

Search for Another Location

Airport or City:

Trip Planner

Search our weather history database for the weather conditions in past years. The results will help you decide how hot, cold, wet, or windy it might be!

Date:

Astronomy

Jan. 22, 2013 Rise Set
Actual Time 7:19 AM EST 5:07 PM EST
Civil Twilight 6:50 AM EST 5:37 PM EST
Nautical Twilight 6:16 AM EST 6:10 PM EST
Astronomical Twilight 5:44 AM EST 6:43 PM EST
Moon 1:28 PM EST (1/22) 3:39 AM EST (1/22)
Length of Visible Light 10h 47m
Length of Day
9h 48m
Waxing Gibbous, 82% of the Moon is Illuminated
Jan 22
Waxing Gibbous
Jan 26
Full
Feb 3
Last Quarter
Feb 10
New
Feb 17
First Quarter

Hourly Weather History & Observations

Time (EST) Temp. Windchill Dew Point Humidity Pressure Visibility Wind Dir Wind Speed Gust Speed Precip Events Conditions
12:51 AM 21.9 °F 8.2 °F 3.0 °F 44% 29.89 in 10.0 mi WNW 16.1 mph 28.8 mph N/A   Clear
1:51 AM 19.4 °F 5.5 °F 1.4 °F 46% 29.89 in 10.0 mi West 15.0 mph 24.2 mph N/A   Clear
2:51 AM 19.0 °F 6.8 °F 1.9 °F 47% 29.93 in 10.0 mi West 11.5 mph 24.2 mph N/A   Clear
3:51 AM 18.0 °F 3.1 °F 1.9 °F 50% 29.95 in 10.0 mi West 16.1 mph 25.3 mph N/A   Clear
4:51 AM 17.1 °F 4.3 °F 1.9 °F 52% 29.98 in 10.0 mi West 11.5 mph 19.6 mph N/A   Clear
5:51 AM 16.0 °F 2.3 °F 1.0 °F 52% 30.01 in 10.0 mi West 12.7 mph 18.4 mph N/A   Clear
6:51 AM 15.1 °F 1.8 °F 1.0 °F 54% 30.03 in 10.0 mi West 11.5 mph - N/A   Clear
7:51 AM 15.1 °F -0.1 °F 1.0 °F 54% 30.07 in 10.0 mi West 15.0 mph 24.2 mph N/A   Clear
8:51 AM 16.0 °F -0.4 °F 1.0 °F 52% 30.09 in 10.0 mi West 18.4 mph 26.5 mph N/A   Clear
9:51 AM 17.1 °F 1.5 °F -0.9 °F 45% 30.11 in 10.0 mi West 17.3 mph 23.0 mph N/A   Partly Cloudy
10:51 AM 18.0 °F 1.7 °F -2.9 °F 40% 30.12 in 10.0 mi West 19.6 mph 31.1 mph N/A   Overcast
11:51 AM 18.0 °F 2.2 °F -5.1 °F 36% 30.11 in 10.0 mi WNW 18.4 mph 25.3 mph N/A   Overcast
12:51 PM 18.0 °F 1.3 °F -7.1 °F 33% 30.09 in 10.0 mi WNW 20.7 mph 28.8 mph N/A   Mostly Cloudy
1:51 PM 18.0 °F 2.2 °F -5.1 °F 36% 30.09 in 10.0 mi West 18.4 mph 26.5 mph N/A   Overcast
2:51 PM 17.1 °F 3.0 °F -5.1 °F 37% 30.10 in 10.0 mi WNW 13.8 mph 24.2 mph N/A   Mostly Cloudy
3:51 PM 17.1 °F 3.0 °F -7.1 °F 34% 30.12 in 10.0 mi West 13.8 mph 27.6 mph N/A   Partly Cloudy
4:51 PM 15.1 °F 0.5 °F -4.0 °F 43% 30.14 in 10.0 mi West 13.8 mph 20.7 mph N/A   Clear
5:51 PM 15.1 °F 2.5 °F -2.9 °F 45% 30.17 in 10.0 mi West 10.4 mph 18.4 mph N/A   Clear
6:51 PM 14.0 °F 0.5 °F -2.9 °F 47% 30.19 in 10.0 mi West 11.5 mph 23.0 mph N/A   Scattered Clouds
7:51 PM 12.9 °F -0.9 °F -2.0 °F 51% 30.22 in 10.0 mi West 11.5 mph 19.6 mph N/A   Partly Cloudy
8:51 PM 12.9 °F -3.4 °F -2.0 °F 51% 30.22 in 10.0 mi WNW 16.1 mph 20.7 mph N/A   Partly Cloudy
9:51 PM 12.0 °F -2.0 °F -2.0 °F 53% 30.25 in 10.0 mi West 11.5 mph - N/A   Partly Cloudy
10:51 PM 12.0 °F -3.4 °F -7.1 °F 42% 30.25 in 10.0 mi West 13.8 mph 19.6 mph N/A   Clear
11:51 PM 10.9 °F -2.6 °F -5.1 °F 49% 30.24 in 10.0 mi West 10.4 mph 17.3 mph N/A   Clear